• Em Portugal
  • Lista de países
  • Para 7 dias
  • Temperatura da água
  • Mapas de satélite
  • Mapa do tempo
  • Widgets de tempo
  • user-avatar
    Iniciar Sessão

    Previsão horária em Bonarowka

    Hoje, 22 Abril, Domingo

    Tempo Temperatura Precipitação Vento Pressão Humidade
    00:00 +14°C° 0 mm 1 m/s 736 mmHg 85%
    01:00 +14°C° 0 mm 1 m/s 736 mmHg 86%
    02:00 +13°C° 0 mm 1 m/s 736 mmHg 87%
    03:00 +12°C° 0 mm 1 m/s 736 mmHg 88%
    04:00 +11°C° 0 mm 1 m/s 735 mmHg 89%
    05:00 +12°C° 0 mm 1 m/s 736 mmHg 85%
    06:00 +13°C° 0 mm 1 m/s 736 mmHg 80%
    07:00 +14°C° 0 mm 1 m/s 736 mmHg 75%
    08:00 +16°C° 0 mm 1 m/s 736 mmHg 66%
    09:00 +17°C° 0 mm 2 m/s 736 mmHg 58%
    10:00 +18°C° 0 mm 3 m/s 736 mmHg 49%
    11:00 +19°C° 0 mm 3 m/s 736 mmHg 46%
    12:00 +20°C° 0 mm 3 m/s 735 mmHg 43%
    13:00 +20°C° 0 mm 3 m/s 735 mmHg 40%
    14:00 +20°C° 0 mm 3 m/s 735 mmHg 40%
    15:00 +20°C° 0 mm 3 m/s 735 mmHg 41%
    16:00 +20°C° 0 mm 3 m/s 734 mmHg 41%
    17:00 +18°C° 0 mm 3 m/s 734 mmHg 47%
    18:00 +15°C° 0 mm 2 m/s 734 mmHg 53%
    19:00 +13°C° 0 mm 1 m/s 734 mmHg 59%
    20:00 +12°C° 0 mm 1 m/s 735 mmHg 61%
    21:00 +12°C° 0 mm 1 m/s 735 mmHg 63%
    22:00 +11°C° 0 mm 1 m/s 735 mmHg 65%
    23:00 +9°C° 0 mm 0 m/s 735 mmHg 66%

    Amanhã, 23 Abril, Segunda-feira

    Tempo Temperatura Precipitação Vento Pressão Humidade
    00:00 +9°C° 0 mm 0 m/s 735 mmHg 67%
    01:00 +9°C° 0 mm 0 m/s 735 mmHg 68%
    02:00 +8°C° 0 mm 0 m/s 735 mmHg 69%
    03:00 +8°C° 0 mm 0 m/s 735 mmHg 69%
    04:00 +8°C° 0 mm 0 m/s 735 mmHg 70%
    05:00 +10°C° 0 mm 0 m/s 735 mmHg 66%
    06:00 +12°C° 0 mm 1 m/s 735 mmHg 62%
    07:00 +14°C° 0 mm 1 m/s 735 mmHg 58%
    08:00 +16°C° 0 mm 1 m/s 735 mmHg 53%
    09:00 +19°C° 0 mm 1 m/s 735 mmHg 48%
    10:00 +21°C° 0 mm 1 m/s 735 mmHg 44%
    11:00 +22°C° 0 mm 1 m/s 734 mmHg 43%
    12:00 +23°C° 0 mm 1 m/s 734 mmHg 42%
    13:00 +24°C° 0 mm 1 m/s 733 mmHg 40%
    14:00 +24°C° 0 mm 2 m/s 733 mmHg 44%
    15:00 +24°C° 0 mm 2 m/s 733 mmHg 47%
    16:00 +23°C° 0 mm 2 m/s 732 mmHg 51%
    17:00 +21°C° 0,7 mm 2 m/s 732 mmHg 61%
    18:00 +19°C° 0,7 mm 2 m/s 732 mmHg 71%
    19:00 +17°C° 0,7 mm 3 m/s 732 mmHg 81%
    20:00 +16°C° 1 mm 3 m/s 732 mmHg 84%
    21:00 +16°C° 1 mm 3 m/s 732 mmHg 88%
    22:00 +16°C° 1 mm 3 m/s 732 mmHg 91%
    23:00 +14°C° 0,3 mm 3 m/s 732 mmHg 92%

    Depois de amanhã, 24 Abril, Terça-feira

    Tempo Temperatura Precipitação Vento Pressão Humidade
    00:00 +14°C° 0,3 mm 3 m/s 732 mmHg 93%
    01:00 +14°C° 0,3 mm 3 m/s 733 mmHg 94%
    02:00 +13°C° 0,3 mm 3 m/s 733 mmHg 94%
    03:00 +13°C° 0,3 mm 4 m/s 733 mmHg 95%
    04:00 +13°C° 0,3 mm 4 m/s 734 mmHg 95%
    05:00 +13°C° 0,1 mm 3 m/s 734 mmHg 91%
    06:00 +13°C° 0,1 mm 3 m/s 735 mmHg 88%
    07:00 +13°C° 0,1 mm 3 m/s 735 mmHg 84%
    08:00 +13°C° 0,1 mm 3 m/s 735 mmHg 77%
    09:00 +14°C° 0,1 mm 4 m/s 735 mmHg 71%
    10:00 +15°C° 0,1 mm 4 m/s 736 mmHg 64%
    11:00 +17°C° 0 mm 4 m/s 736 mmHg 61%
    12:00 +18°C° 0 mm 4 m/s 736 mmHg 57%
    13:00 +18°C° 0 mm 4 m/s 735 mmHg 53%
    14:00 +18°C° 0 mm 4 m/s 735 mmHg 53%
    15:00 +18°C° 0 mm 4 m/s 735 mmHg 52%
    16:00 +18°C° 0 mm 4 m/s 735 mmHg 52%
    17:00 +17°C° 0 mm 3 m/s 735 mmHg 58%
    18:00 +15°C° 0 mm 2 m/s 735 mmHg 64%
    19:00 +13°C° 0 mm 1 m/s 735 mmHg 70%
    20:00 +13°C° 0 mm 1 m/s 735 mmHg 71%
    21:00 +13°C° 0 mm 1 m/s 735 mmHg 71%
    22:00 +12°C° 0 mm 2 m/s 735 mmHg 72%
    23:00 +12°C° 0 mm 2 m/s 735 mmHg 73%

    25 Abril, Quarta-feira

    Tempo Temperatura Precipitação Vento Pressão Humidade
    00:00 +12°C° 0 mm 2 m/s 735 mmHg 73%
    01:00 +10°C° 0 mm 2 m/s 735 mmHg 74%
    02:00 +10°C° 0 mm 2 m/s 735 mmHg 74%
    03:00 +10°C° 0 mm 2 m/s 735 mmHg 75%
    04:00 +10°C° 0 mm 2 m/s 735 mmHg 75%
    05:00 +12°C° 0 mm 3 m/s 735 mmHg 73%
    06:00 +13°C° 0 mm 3 m/s 735 mmHg 71%
    07:00 +14°C° 0 mm 3 m/s 735 mmHg 69%
    08:00 +17°C° 0 mm 4 m/s 734 mmHg 63%
    09:00 +19°C° 0 mm 4 m/s 734 mmHg 58%
    10:00 +21°C° 0 mm 5 m/s 734 mmHg 53%
    11:00 +22°C° 0 mm 5 m/s 734 mmHg 50%
    12:00 +23°C° 0 mm 5 m/s 733 mmHg 47%
    13:00 +24°C° 0 mm 6 m/s 733 mmHg 44%
    14:00 +25°C° 0 mm 5 m/s 733 mmHg 45%
    15:00 +25°C° 0 mm 5 m/s 732 mmHg 46%
    16:00 +26°C° 0 mm 4 m/s 732 mmHg 46%
    17:00 +23°C° 0,1 mm 4 m/s 731 mmHg 54%
    18:00 +21°C° 0,1 mm 4 m/s 731 mmHg 62%
    19:00 +19°C° 0,1 mm 3 m/s 731 mmHg 69%
    20:00 +18°C° 0,8 mm 4 m/s 731 mmHg 75%
    21:00 +17°C° 0,8 mm 4 m/s 731 mmHg 81%
    22:00 +17°C° 0,8 mm 4 m/s 731 mmHg 86%
    23:00 +15°C° 0,4 mm 4 m/s 732 mmHg 87%

    26 Abril, Quinta-feira

    Tempo Temperatura Precipitação Vento Pressão Humidade
    00:00 +16°C° 0,4 mm 3 m/s 732 mmHg 88%
    01:00 +14°C° 0,4 mm 3 m/s 732 mmHg 90%
    02:00 +13°C° 0 mm 3 m/s 732 mmHg 91%
    03:00 +14°C° 0 mm 2 m/s 732 mmHg 93%
    04:00 +13°C° 0 mm 2 m/s 732 mmHg 94%
    05:00 +14°C° 0 mm 2 m/s 733 mmHg 90%
    06:00 +15°C° 0 mm 2 m/s 733 mmHg 86%
    07:00 +16°C° 0 mm 2 m/s 734 mmHg 82%
    08:00 +17°C° 0 mm 2 m/s 734 mmHg 77%
    09:00 +19°C° 0 mm 1 m/s 734 mmHg 72%
    10:00 +20°C° 0 mm 1 m/s 734 mmHg 67%
    11:00 +21°C° 0 mm 1 m/s 734 mmHg 65%
    12:00 +21°C° 0 mm 1 m/s 733 mmHg 63%
    13:00 +22°C° 0 mm 1 m/s 733 mmHg 61%
    14:00 +22°C° 0,2 mm 1 m/s 733 mmHg 63%
    15:00 +21°C° 0,2 mm 2 m/s 732 mmHg 64%
    16:00 +21°C° 0,2 mm 2 m/s 732 mmHg 66%
    17:00 +19°C° 1,5 mm 2 m/s 732 mmHg 74%
    18:00 +18°C° 1,5 mm 2 m/s 732 mmHg 82%
    19:00 +16°C° 1,5 mm 2 m/s 732 mmHg 90%
    20:00 +16°C° 0,6 mm 2 m/s 732 mmHg 92%
    21:00 +15°C° 0,6 mm 2 m/s 732 mmHg 93%
    22:00 +14°C° 0,6 mm 2 m/s 732 mmHg 95%
    23:00 +14°C° 0,2 mm 2 m/s 732 mmHg 95%

    27 Abril, Sexta-feira

    Tempo Temperatura Precipitação Vento Pressão Humidade
    00:00 +13°C° 0,2 mm 3 m/s 732 mmHg 95%
    01:00 +13°C° 0,2 mm 3 m/s 732 mmHg 95%
    02:00 +12°C° 0,4 mm 3 m/s 731 mmHg 95%
    03:00 +12°C° 0,4 mm 4 m/s 731 mmHg 94%
    04:00 +11°C° 0,4 mm 4 m/s 731 mmHg 93%
    05:00 +11°C° 0,2 mm 4 m/s 731 mmHg 93%
    06:00 +11°C° 0,2 mm 3 m/s 732 mmHg 92%
    07:00 +10°C° 0,2 mm 3 m/s 732 mmHg 92%
    08:00 +10°C° 0,5 mm 3 m/s 732 mmHg 92%
    09:00 +10°C° 0,5 mm 3 m/s 732 mmHg 93%
    10:00 +10°C° 0,5 mm 3 m/s 732 mmHg 93%
    11:00 +9°C° 0,7 mm 3 m/s 732 mmHg 93%
    12:00 +8°C° 0,7 mm 4 m/s 732 mmHg 93%
    13:00 +8°C° 0,7 mm 4 m/s 732 mmHg 93%
    14:00 +8°C° 0,6 mm 4 m/s 733 mmHg 93%
    15:00 +7°C° 0,6 mm 5 m/s 733 mmHg 93%
    16:00 +7°C° 0,6 mm 5 m/s 733 mmHg 92%
    17:00 +6°C° 0,2 mm 4 m/s 733 mmHg 93%
    18:00 +7°C° 0,2 mm 3 m/s 734 mmHg 93%
    19:00 +7°C° 0,2 mm 2 m/s 734 mmHg 93%
    20:00 +7°C° 0 mm 2 m/s 734 mmHg 94%
    21:00 +6°C° 0 mm 2 m/s 734 mmHg 95%
    22:00 +6°C° 0 mm 2 m/s 735 mmHg 95%
    23:00 +6°C° 0 mm 2 m/s 735 mmHg 96%
    Mostrar mais